Weather History for Columbus, OH

Change the Weather History Date:

Sunday, September 15, 2013

  Actual Average Record
Temperature  
Mean Temperature 62 °F 67 °F  
Max Temperature 76 °F 78 °F 97 °F (1939)
Min Temperature 47 °F 57 °F 40 °F (1923)
Degree Days  
Heating Degree Days 3 2  
Month to date heating degree days 18 14  
Since 1 July heating degree days 22 14  
Cooling Degree Days 0 4  
Month to date cooling degree days 106 84  
Year to date cooling degree days 1107 973  
Growing Degree Days 10 (Base 50)    
Moisture  
Dew Point 49 °F    
Average Humidity 66    
Maximum Humidity 93    
Minimum Humidity 38    
Precipitation  
Precipitation T in 0.09 in 1.79 in (1911)
Month to date precipitation 0.88 1.49  
Year to date precipitation 27.52 29.18  
Snow  
Snow 0.00 in 0.00 in 0.00 in ()
Month to date snowfall 0.0 0.0  
Since 1 July snowfall 0.0 0.0  
Since 1 September snowfall 0.0 0.0  
Snow Depth 0.00 in    
Sea Level Pressure  
Sea Level Pressure 30.11 in    
Wind  
Wind Speed 4 mph (SSW)    
Max Wind Speed 16 mph    
Max Gust Speed 25 mph    
Visibility 10 miles    
Events Rain    
T = Trace of Precipitation, MM = Missing Value Source: NWS Daily Summary

Daily Weather History Graph

Daily Weather History Graph

Search for Another Location

Airport:

Trip Planner

Search our weather history database for the weather conditions in past years. The results will help you decide how hot, cold, wet, or windy it might be!

Date:

Astronomy

Sep. 15, 2013 Rise Set
Actual Time 7:12 AM EDT 7:39 PM EDT
Civil Twilight 6:45 AM EDT 8:06 PM EDT
Nautical Twilight 6:13 AM EDT 8:38 PM EDT
Astronomical Twilight 5:40 AM EDT 9:11 PM EDT
Moon 5:06 PM EDT (9/15) 2:49 AM EDT (9/15)
Length of Visible Light 13h 21m
Length of Day
12h 27m
Waxing Gibbous, 82% of the Moon is Illuminated
Sep 15
Waxing Gibbous
Sep 19
Full
Sep 26
Last Quarter
Oct 4
New
Oct 11
First Quarter

Hourly Weather History & Observations

Time (EDT) Temp. Dew Point Humidity Pressure Visibility Wind Dir Wind Speed Gust Speed Precip Events Conditions
12:51 AM 55.0 °F 46.0 °F 72% 30.12 in 10.0 mi Calm Calm - N/A   Clear
1:51 AM 55.0 °F 45.0 °F 69% 30.12 in 10.0 mi SE 3.5 mph - N/A   Partly Cloudy
2:51 AM 53.1 °F 45.0 °F 74% 30.12 in 10.0 mi ESE 3.5 mph - N/A   Partly Cloudy
3:51 AM 52.0 °F 45.0 °F 77% 30.13 in 10.0 mi Calm Calm - N/A   Partly Cloudy
4:51 AM 48.0 °F 45.0 °F 89% 30.14 in 10.0 mi Calm Calm - N/A   Partly Cloudy
5:51 AM 48.0 °F 46.0 °F 93% 30.14 in 10.0 mi Calm Calm - N/A   Clear
6:51 AM 48.0 °F 45.0 °F 89% 30.15 in 10.0 mi Calm Calm - N/A   Clear
7:51 AM 48.9 °F 46.9 °F 93% 30.17 in 10.0 mi Calm Calm - N/A   Scattered Clouds
8:51 AM 54.0 °F 48.0 °F 80% 30.16 in 10.0 mi Calm Calm - N/A   Mostly Cloudy
9:51 AM 57.9 °F 48.9 °F 72% 30.16 in 10.0 mi Calm Calm - N/A   Clear
10:51 AM 63.0 °F 48.9 °F 60% 30.16 in 10.0 mi South 6.9 mph - N/A   Mostly Cloudy
11:51 AM 64.9 °F 48.9 °F 56% 30.15 in 10.0 mi SW 6.9 mph - N/A   Overcast
12:51 PM 68.0 °F 48.0 °F 49% 30.13 in 10.0 mi Variable 5.8 mph - N/A   Mostly Cloudy
1:51 PM 69.1 °F 46.0 °F 44% 30.12 in 10.0 mi Variable 4.6 mph - N/A   Mostly Cloudy
2:51 PM 71.1 °F 45.0 °F 39% 30.10 in 10.0 mi SSW 5.8 mph - N/A   Mostly Cloudy
3:51 PM 72.0 °F 46.9 °F 41% 30.07 in 10.0 mi South 8.1 mph - N/A   Mostly Cloudy
4:51 PM 75.0 °F 51.1 °F 43% 30.05 in 10.0 mi SSW 6.9 mph - N/A   Overcast
5:51 PM 75.0 °F 51.1 °F 43% 30.04 in 10.0 mi SSW 6.9 mph - N/A   Overcast
6:51 PM 73.9 °F 52.0 °F 46% 30.03 in 10.0 mi SW 6.9 mph - N/A   Overcast
7:51 PM 73.0 °F 54.0 °F 51% 30.05 in 10.0 mi SW 4.6 mph - N/A   Overcast
8:51 PM 71.1 °F 55.0 °F 57% 30.06 in 10.0 mi West 3.5 mph - N/A   Overcast
9:51 PM 68.0 °F 57.9 °F 70% 30.06 in 10.0 mi SE 3.5 mph - N/A   Overcast
10:51 PM 69.1 °F 57.9 °F 68% 30.06 in 10.0 mi Calm Calm - N/A   Overcast
11:51 PM 63.0 °F 55.9 °F 78% 30.08 in 10.0 mi North 4.6 mph - 0.00 in Rain Light Rain